SENTINEL-1B             
1 41456U 16025A   19260.46415898 -.00000006  00000-0  83486-5 0  9998
2 41456  98.1821 266.1980 0001237  81.1647 278.9697 14.59198449180778
MICROSCOPE              
1 41457U 16025B   19259.94151012  .00000070  00000-0  27147-4 0  9996
2 41457  98.2421 263.5807 0000620 100.6426 259.4841 14.54073051180032
OUFTI-1                 
1 41458U 16025C   19260.28926917  .00000922  00000-0  50458-4 0  9997
2 41458  98.1007 351.7403 0167007  52.7687 308.8644 15.06016072186206
E-ST@R-II               
1 41459U 16025D   19260.19467159  .00001585  00000-0  84231-4 0  9998
2 41459  98.1017 351.2502 0167829  54.6215 307.0551 15.05647721186166
AAUSAT 4                
1 41460U 16025E   19260.32123614  .00001602  00000-0  83238-4 0  9996
2 41460  98.0951 352.8543 0157765  45.9746 315.4312 15.07605328186321
ASAP-S                  
1 41461U 16025F   19259.88553847  .00001146  00000-0  62378-4 0  9996
2 41461  98.1238 352.5374 0175132  63.9540 297.9598 15.04592807186065